Grafton, ND

2:00 AM CST on February 21, 2017 (GMT -0600)
Grafton Municipal

Weather History for KGAF - November, 2013

Change the Weather History Date:

Thursday, November 28, 2013

  Actual Average Record
Temperature  
Mean Temperature 10 °F -  
Max Temperature 19 °F 25 °F 46 °F (1949)
Min Temperature 0 °F 9 °F -28 °F (1985)
Degree Days  
Heating Degree Days 56    
Moisture  
Dew Point 6 °F    
Average Humidity 85    
Maximum Humidity 92    
Minimum Humidity 79    
Precipitation  
Precipitation 0.00 in - - ()
Sea Level Pressure  
Sea Level Pressure 30.38 in    
Wind  
Wind Speed 11 mph (NNW)    
Max Wind Speed 18 mph    
Max Gust Speed 29 mph    
Visibility 9 miles    
Events Rain , Snow    
Averages and records for this station are not official NWS values.
T = Trace of Precipitation, MM = Missing Value Source: NWS Daily Summary

Daily Weather History Graph

Daily Weather History Graph

Search for Another Location

Airport or City:

Trip Planner

Search our weather history database for the weather conditions in past years. The results will help you decide how hot, cold, wet, or windy it might be!

Date:

Astronomy

Nov. 28, 2013 Rise Set
Actual Time 7:56 AM CST 4:38 PM CST
Civil Twilight 7:20 AM CST 5:14 PM CST
Nautical Twilight 6:41 AM CST 5:53 PM CST
Astronomical Twilight 6:03 AM CST 6:30 PM CST
Moon 2:39 AM CST (11/28) 2:07 PM CST (11/28)
Length of Visible Light 9h 53m
Length of Day
8h 42m
Waning Crescent, 22% of the Moon is Illuminated
Nov 28
Waning Crescent
Dec 2
New
Dec 9
First Quarter
Dec 17
Full
Dec 25
Last Quarter

Hourly Weather History & Observations

Time (CST) Temp. Windchill Dew Point Humidity Pressure Visibility Wind Dir Wind Speed Gust Speed Precip Events Conditions
12:15 AM 19.4 °F 5.5 °F 14.0 °F 80% 30.14 in 9.0 mi NNW 15.0 mph 19.6 mph N/A Snow Light Snow
12:35 AM 19.4 °F 4.1 °F 14.0 °F 80% 30.15 in 8.0 mi NNW 18.4 mph 27.6 mph N/A Snow Light Snow
12:55 AM 19.4 °F 5.5 °F 14.0 °F 80% 30.15 in 8.0 mi NNW 15.0 mph 23.0 mph N/A Snow Light Snow
1:15 AM 17.6 °F 2.7 °F 14.0 °F 86% 30.16 in 10.0 mi NNW 16.1 mph 20.7 mph N/A Snow Light Snow
1:35 AM 17.6 °F 2.7 °F 12.2 °F 79% 30.17 in 10.0 mi NNW 16.1 mph 19.6 mph N/A   Mostly Cloudy
1:55 AM 17.6 °F 4.3 °F 14.0 °F 86% 30.18 in 7.0 mi NNW 12.7 mph - N/A Snow Light Snow
2:15 AM 17.6 °F 3.7 °F 14.0 °F 86% 30.19 in 2.0 mi NNW 13.8 mph 18.4 mph N/A Snow Light Snow
2:35 AM 15.8 °F 0.9 °F 12.2 °F 86% 30.20 in 5.0 mi NNW 15.0 mph 23.0 mph N/A Snow Light Snow
2:55 AM 15.8 °F 0.3 °F 10.4 °F 79% 30.22 in 10.0 mi NNW 16.1 mph 24.2 mph N/A Snow Light Snow
3:15 AM 14.0 °F -3.0 °F 10.4 °F 86% 30.23 in 9.0 mi NNW 18.4 mph 26.5 mph N/A Rain Light Freezing Rain
3:35 AM 14.0 °F -2.5 °F 10.4 °F 86% 30.23 in 10.0 mi North 17.3 mph 28.8 mph N/A   Mostly Cloudy
3:55 AM 14.0 °F -1.4 °F 10.4 °F 86% 30.24 in 10.0 mi North 15.0 mph - N/A   Mostly Cloudy
4:15 AM 14.0 °F -1.4 °F 10.4 °F 86% 30.25 in 10.0 mi NNW 15.0 mph 20.7 mph N/A   Mostly Cloudy
4:35 AM 14.0 °F -1.4 °F 8.6 °F 79% 30.26 in 10.0 mi NNW 15.0 mph 20.7 mph N/A   Overcast
4:55 AM 14.0 °F -2.0 °F 8.6 °F 79% 30.27 in 10.0 mi North 16.1 mph 26.5 mph N/A Snow Light Snow
5:15 AM 14.0 °F -2.0 °F 8.6 °F 79% 30.28 in 10.0 mi North 16.1 mph 25.3 mph N/A Snow Light Snow
5:35 AM 12.2 °F -4.3 °F 8.6 °F 85% 30.29 in 10.0 mi North 16.1 mph 20.7 mph N/A   Overcast
5:55 AM 10.4 °F -4.1 °F 8.6 °F 92% 30.30 in 10.0 mi North 11.5 mph 18.4 mph N/A   Scattered Clouds
6:15 AM 10.4 °F -2.4 °F 6.8 °F 85% 30.31 in 10.0 mi North 9.2 mph - N/A   Scattered Clouds
6:35 AM 10.4 °F -1.5 °F 8.6 °F 92% 30.33 in 10.0 mi NNW 8.1 mph - N/A   Mostly Cloudy
6:55 AM 10.4 °F -3.3 °F 6.8 °F 85% 30.33 in 10.0 mi North 10.4 mph - N/A   Scattered Clouds
7:15 AM 10.4 °F -1.5 °F 6.8 °F 85% 30.34 in 10.0 mi North 8.1 mph - N/A   Clear
7:35 AM 8.6 °F -2.6 °F 5.0 °F 85% 30.35 in 10.0 mi NNW 6.9 mph - N/A   Clear
7:55 AM 8.6 °F -1.3 °F 5.0 °F 85% 30.35 in 10.0 mi North 5.8 mph - N/A   Clear
8:15 AM 6.8 °F -4.8 °F 5.0 °F 92% 30.37 in 10.0 mi NNW 6.9 mph - N/A   Clear
8:35 AM 8.6 °F -3.7 °F 5.0 °F 85% 30.37 in 10.0 mi NNW 8.1 mph - N/A   Partly Cloudy
8:55 AM 8.6 °F -2.6 °F 6.8 °F 92% 30.38 in 10.0 mi NNW 6.9 mph - N/A   Scattered Clouds
9:15 AM 10.4 °F -2.4 °F 8.6 °F 92% 30.39 in 10.0 mi NNW 9.2 mph - N/A Snow Light Snow
9:35 AM 10.4 °F -2.4 °F 6.8 °F 85% 30.40 in 8.0 mi NNW 9.2 mph - N/A Snow Light Snow
9:55 AM 12.2 °F -3.1 °F 8.6 °F 85% 30.41 in 8.0 mi NNW 13.8 mph - N/A Snow Light Snow
10:15 AM 12.2 °F -3.7 °F 8.6 °F 85% 30.42 in 7.0 mi North 15.0 mph - N/A Snow Light Snow
10:35 AM 14.0 °F -0.2 °F 8.6 °F 79% 30.42 in 6.0 mi NNW 12.7 mph - N/A Snow Light Snow
10:55 AM 14.0 °F -0.2 °F 8.6 °F 79% 30.42 in 2.5 mi NNW 12.7 mph - N/A Snow Light Snow
11:15 AM 14.0 °F -0.8 °F 8.6 °F 79% 30.42 in 8.0 mi NNW 13.8 mph 17.3 mph N/A Rain Light Freezing Rain
11:35 AM 14.0 °F -0.8 °F 8.6 °F 79% 30.43 in 3.0 mi NNW 13.8 mph - N/A Snow Light Snow
11:55 AM 14.0 °F 0.5 °F 8.6 °F 79% 30.42 in 3.0 mi North 11.5 mph - N/A Snow Light Snow
12:15 PM 14.0 °F 2.0 °F 8.6 °F 79% 30.43 in 5.0 mi North 9.2 mph - N/A Snow Light Snow
12:35 PM 14.0 °F 2.0 °F 8.6 °F 79% 30.43 in 10.0 mi North 9.2 mph - N/A Snow Light Snow
12:55 PM 14.0 °F 1.2 °F 8.6 °F 79% 30.43 in 10.0 mi North 10.4 mph - N/A   Scattered Clouds
1:15 PM 14.0 °F 1.2 °F 8.6 °F 79% 30.43 in 10.0 mi North 10.4 mph - N/A   Mostly Cloudy
1:35 PM 14.0 °F 0.5 °F 8.6 °F 79% 30.43 in 10.0 mi North 11.5 mph - N/A   Mostly Cloudy
1:55 PM 14.0 °F 1.2 °F 8.6 °F 79% 30.43 in 10.0 mi North 10.4 mph - N/A   Mostly Cloudy
2:15 PM 14.0 °F -0.2 °F 8.6 °F 79% 30.43 in 10.0 mi NNW 12.7 mph - N/A   Scattered Clouds
2:35 PM 14.0 °F 1.2 °F 8.6 °F 79% 30.43 in 10.0 mi North 10.4 mph - N/A   Clear
2:55 PM 12.2 °F -1.0 °F 6.8 °F 79% 30.43 in 10.0 mi North 10.4 mph - N/A   Partly Cloudy
3:15 PM 12.2 °F -0.2 °F 6.8 °F 79% 30.43 in 10.0 mi North 9.2 mph - N/A   Clear
3:35 PM 10.4 °F -2.4 °F 6.8 °F 85% 30.45 in 10.0 mi North 9.2 mph - N/A   Clear
3:55 PM 10.4 °F 0.8 °F 6.8 °F 85% 30.45 in 10.0 mi North 5.8 mph - N/A   Clear
4:15 PM 8.6 °F -1.3 °F 5.0 °F 85% 30.45 in 10.0 mi NNE 5.8 mph - N/A   Clear
4:35 PM 8.6 °F 2.0 °F 5.0 °F 85% 30.46 in 10.0 mi NNE 3.5 mph - N/A   Clear
4:55 PM 6.8 °F -0.1 °F 5.0 °F 92% 30.46 in 10.0 mi NNE 3.5 mph - N/A   Clear
5:15 PM 6.8 °F - 5.0 °F 92% 30.47 in 10.0 mi Calm Calm - N/A   Clear
5:35 PM 6.8 °F - 5.0 °F 92% 30.47 in 10.0 mi Calm Calm - N/A   Clear
5:55 PM 6.8 °F - 3.2 °F 85% 30.47 in 10.0 mi Calm Calm - N/A   Clear
6:15 PM 5.0 °F - 3.2 °F 92% 30.47 in 10.0 mi Calm Calm - N/A   Clear
6:35 PM 3.2 °F - -0.4 °F 85% 30.48 in 10.0 mi Calm Calm - N/A   Clear
6:55 PM 3.2 °F - -0.4 °F 85% 30.48 in 10.0 mi Calm Calm - N/A   Clear
7:15 PM 3.2 °F - -0.4 °F 85% 30.47 in 9.0 mi Calm Calm - N/A   Clear
7:35 PM 3.2 °F - -0.4 °F 85% 30.47 in 2.5 mi Calm Calm - N/A   Clear
7:55 PM 1.4 °F - -0.4 °F 92% 30.46 in 8.0 mi Calm Calm - N/A   Clear
8:15 PM 1.4 °F -8.3 °F -0.4 °F 92% 30.46 in 0.8 mi ESE 4.6 mph - N/A   Mist
8:35 PM -0.4 °F -8.3 °F -2.2 °F 92% 30.46 in 10.0 mi SE 3.5 mph - N/A   Clear
8:55 PM -0.4 °F -10.4 °F -2.2 °F 92% 30.45 in 10.0 mi ESE 4.6 mph - N/A   Clear
9:15 PM -0.4 °F -10.4 °F -2.2 °F 92% 30.45 in 10.0 mi SSE 4.6 mph - N/A   Clear
9:35 PM 1.4 °F -6.2 °F -2.2 °F 85% 30.46 in 7.0 mi South 3.5 mph - N/A   Clear
9:55 PM -0.4 °F -10.4 °F -2.2 °F 92% 30.45 in 10.0 mi South 4.6 mph - N/A   Clear
10:15 PM -0.4 °F -10.4 °F -2.2 °F 92% 30.45 in 10.0 mi South 4.6 mph - N/A   Clear
10:35 PM -0.4 °F -10.4 °F -2.2 °F 92% 30.46 in 10.0 mi SSW 4.6 mph - N/A   Clear
10:55 PM -0.4 °F -10.4 °F -2.2 °F 92% 30.45 in 10.0 mi SSW 4.6 mph - N/A   Clear
11:15 PM -0.4 °F -10.4 °F -2.2 °F 92% 30.45 in 10.0 mi SSW 4.6 mph - N/A   Clear
11:35 PM -0.4 °F - -2.2 °F 92% 30.45 in 10.0 mi Calm Calm - N/A   Clear
11:55 PM 1.4 °F - -0.4 °F 92% 30.45 in 10.0 mi Calm Calm - N/A   Clear